Branson, MO

2:15 AM CST on November 20, 2017 (GMT -0600)
Branson

Weather History for KBBG - December, 2012

Change the Weather History Date:

Friday, December 7, 2012

  Actual Average (KHRO) Record (KHRO)
Temperature  
Mean Temperature 50 °F -  
Max Temperature 55 °F 48 °F 74 °F (1966)
Min Temperature 44 °F 30 °F -6 °F (1950)
Degree Days  
Heating Degree Days 16    
Moisture  
Dew Point 47 °F    
Average Humidity 92    
Maximum Humidity 100    
Minimum Humidity 77    
Precipitation  
Precipitation 0.00 in - - ()
Sea Level Pressure  
Sea Level Pressure 29.88 in    
Wind  
Wind Speed 0 mph (North)    
Max Wind Speed 0 mph    
Max Gust Speed -    
Visibility 8 miles    
Events      
Averages and records for this station are not official NWS values.
T = Trace of Precipitation, MM = Missing Value Source: NWS Daily Summary

Daily Weather History Graph

Daily Weather History Graph

Search for Another Location

Airport or City:

Trip Planner

Search our weather history database for the weather conditions in past years. The results will help you decide how hot, cold, wet, or windy it might be!

Date:

Astronomy

Dec. 07, 2012 Rise Set
Actual Time 7:11 AM CST 4:57 PM CST
Civil Twilight 6:43 AM CST 5:25 PM CST
Nautical Twilight 6:11 AM CST 5:57 PM CST
Astronomical Twilight 5:39 AM CST 6:29 PM CST
Moon 12:40 AM CST (12/7) 12:46 PM CST (12/7)
Length of Visible Light 10h 42m
Length of Day
9h 45m
Last Quarter, 38% of the Moon is Illuminated
Dec 7
Last Quarter
Dec 13
New
Dec 19
First Quarter
Dec 28
Full
Jan 4
Last Quarter

Hourly Weather History & Observations

Time (CST) Temp. Dew Point Humidity Pressure Visibility Wind Dir Wind Speed Gust Speed Precip Events Conditions
12:15 AM 48.2 °F 46.4 °F 93% 29.91 in 10.0 mi Calm Calm - N/A   Overcast
12:35 AM 48.2 °F 46.4 °F 93% 29.91 in 10.0 mi Calm Calm - N/A   Overcast
12:55 AM 46.4 °F 44.6 °F 93% 29.90 in 10.0 mi Calm Calm - N/A   Mostly Cloudy
1:15 AM 46.4 °F 44.6 °F 93% 29.89 in 8.0 mi Calm Calm - N/A   Scattered Clouds
1:35 AM 46.4 °F 46.4 °F 100% 29.90 in 10.0 mi Calm Calm - N/A   Mostly Cloudy
1:55 AM 46.4 °F 44.6 °F 93% 29.90 in 10.0 mi Calm Calm - N/A   Overcast
2:15 AM 46.4 °F 46.4 °F 100% 29.90 in 8.0 mi Calm Calm - N/A   Overcast
2:35 AM 44.6 °F 44.6 °F 100% 29.89 in 7.0 mi Calm Calm - N/A   Overcast
2:55 AM 44.6 °F 44.6 °F 100% 29.90 in 5.0 mi Calm Calm - N/A   Overcast
3:15 AM 44.6 °F 44.6 °F 100% 29.90 in 4.0 mi Calm Calm - N/A   Overcast
3:35 AM 44.6 °F 44.6 °F 100% 29.89 in 4.0 mi Calm Calm - N/A   Overcast
3:55 AM 46.4 °F 46.4 °F 100% 29.89 in 8.0 mi Calm Calm - N/A   Overcast
4:15 AM 46.4 °F 46.4 °F 100% 29.89 in 6.0 mi Calm Calm - N/A   Overcast
4:35 AM 44.6 °F 44.6 °F 100% 29.89 in 5.0 mi Calm Calm - N/A   Overcast
5:15 AM 46.4 °F 46.4 °F 100% 29.88 in 8.0 mi Calm Calm - N/A   Overcast
5:35 AM 48.2 °F 46.4 °F 93% 29.88 in 8.0 mi Calm Calm - N/A   Overcast
6:50 AM 48.2 °F 46.4 °F 93% 29.89 in 10.0 mi Calm Calm - N/A   Overcast
7:48 AM 48.2 °F 48.2 °F 100% 29.90 in 10.0 mi Calm Calm - N/A   Overcast
8:45 AM 50.0 °F 48.2 °F 94% 29.90 in 10.0 mi Calm Calm - N/A   Overcast
9:50 AM 53.6 °F 48.2 °F 82% 29.91 in 10.0 mi Calm Calm - N/A   Overcast
10:45 AM 55.4 °F 48.2 °F 77% 29.90 in 9.0 mi Calm Calm - N/A   Overcast
11:45 AM 55.4 °F 48.2 °F 77% 29.87 in 9.0 mi Calm Calm - N/A   Overcast
12:50 PM 55.4 °F 50.0 °F 82% 29.84 in 10.0 mi Calm Calm - N/A   Overcast
1:54 PM 53.6 °F 50.0 °F 88% 29.83 in 10.0 mi Calm Calm - N/A   Overcast
2:48 PM 53.6 °F 48.2 °F 82% 29.82 in 10.0 mi Calm Calm - N/A   Overcast
3:45 PM 53.6 °F 48.2 °F 82% 29.83 in 10.0 mi Calm Calm - N/A   Overcast
4:45 PM 53.6 °F 48.2 °F 82% 29.84 in 10.0 mi Calm Calm - N/A   Overcast
5:47 PM 53.6 °F 48.2 °F 82% 29.85 in 8.0 mi Calm Calm - N/A   Overcast
7:51 PM 51.8 °F 48.2 °F 88% 29.85 in 8.0 mi Calm Calm - N/A   Overcast
8:15 PM 51.8 °F 48.2 °F 88% 29.86 in 8.0 mi Calm Calm - N/A   Overcast
8:47 PM 51.8 °F 48.2 °F 88% 29.86 in 10.0 mi Calm Calm - N/A   Overcast
8:55 PM 51.8 °F 48.2 °F 88% 29.86 in 8.0 mi Calm Calm - N/A   Overcast
9:15 PM 51.8 °F 48.2 °F 88% 29.86 in 8.0 mi Calm Calm - N/A   Overcast
9:35 PM 51.8 °F 48.2 °F 88% 29.87 in 8.0 mi Calm Calm - N/A   Overcast
9:55 PM 51.8 °F 48.2 °F 88% 29.88 in 8.0 mi Calm Calm - N/A   Overcast
10:35 PM 50.0 °F 48.2 °F 94% 29.88 in 7.0 mi Calm Calm - N/A   Overcast
10:55 PM 51.8 °F 50.0 °F 94% 29.88 in 7.0 mi Calm Calm - N/A   Overcast
11:15 PM 51.8 °F 50.0 °F 94% 29.88 in 6.0 mi Calm Calm - N/A   Overcast
11:35 PM 51.8 °F 50.0 °F 94% 29.88 in 6.0 mi Calm Calm - N/A   Overcast
11:55 PM 51.8 °F 50.0 °F 94% 29.88 in 5.0 mi Calm Calm - N/A   Overcast